Simultaneous Nadir Overpasses (SNOs) Predictions

Prediction of SNOs between METOP-B and NOAA-19 Satellite Orbit:

Table of predicted SNOs for the next 14.0 days since TLE Epoch: 1/31/2020
Index Date (METOP-B) Time (METOP-B) Lat,Lon (METOP-B) SZA (METOP-B ) Date (NOAA-19) Time (NOAA-19) Lat,Lon (NOAA-19) SZA (NOAA-19 ) Distance(km) Time Diff (sec)
1 02/10/2020 09:19:15 79.79, 60.60 94.62 02/10/2020 09:18:15 79.79, 60.52 94.61 1.47 60
2 02/10/2020 10:09:57 -79.78,-132.15 85.41 02/10/2020 10:09:16 -79.79,-132.18 85.41 1.02 41
3 02/10/2020 11:00:37 79.78, 35.15 94.58 02/10/2020 11:00:15 79.77, 35.22 94.58 1.58 22
4 02/10/2020 11:51:19 -79.77,-157.60 85.45 02/10/2020 11:51:16 -79.77,-157.48 85.44 2.41 3
5 02/10/2020 12:41:59 79.76, 9.69 94.54 02/10/2020 12:42:16 79.78, 9.62 94.56 2.50 17
6 02/10/2020 13:32:41 -79.76, 176.95 85.49 02/10/2020 13:33:17 -79.78, 176.93 85.46 2.44 36
7 02/10/2020 14:23:21 79.75, -15.76 94.50 02/10/2020 14:24:16 79.77, -15.68 94.53 2.18 55




NCC Satellite Simultaneous Nadir Overpasses (SNOs) Prediction Service
